Check out our new BloomSky Weather System.

Active alerts

Houston, TX
  Details for Houston, TX Dense Fog Advisory


Thunder radar  blitzortung!


Rain radar more information rain snow radar


Visit our other weather sites:

Template documentation
and downloads

And another site



Weather Underground History page Text

Daily Summary for February 13, 2017 Units:  Metric    English   Both
« Previous Day
Next Day »
Daily Weekly Monthly Yearly Custom
  High: Low: Average:
Temperature: 25.3 °C 18.1 °C 21 °C
Dew Point: 20 °C 15.7 °C 18.1 °C
Humidity: 97 % 62 % 84 %
Wind Speed: 22.5 km/h 0 km/h 4.3 km/h
Wind Gust: 25.7 km/h - -
Wind:- - SE
Pressure: 1021.6 hPa 1013.4 hPa -
Precipitation: 0 mm    
Historical Graphs
 
 
Tabular Data for February 13, 2017
Time Temperature Dew Point Pressure Wind Wind Speed Wind Gust Humidity Rainfall Rate (Hourly)
00:01 21.2 °C 19.7 °C 1020.2 hPa SSE 1.6 km/h 1.6 km/h 91 % 0 mm
00:06 21.2 °C 19.8 °C 1020.2 hPa South 3.2 km/h 3.2 km/h 92 % 0 mm
00:11 21.2 °C 19.7 °C 1020.2 hPa Calm   3.2 km/h 91 % 0 mm
00:16 21.2 °C 19.7 °C 1020.2 hPa SSE 3.2 km/h 4.8 km/h 91 % 0 mm
00:21 21.2 °C 19.7 °C 1020.2 hPa Calm   4.8 km/h 91 % 0 mm
00:26 21.2 °C 19.7 °C 1020.2 hPa Calm   4.8 km/h 91 % 0 mm
00:31 21.2 °C 19.7 °C 1020.2 hPa Calm   3.2 km/h 91 % 0 mm
00:36 21.1 °C 19.6 °C 1020.2 hPa Calm   1.6 km/h 91 % 0 mm
00:41 21.1 °C 19.7 °C 1019.9 hPa Calm     92 % 0 mm
00:46 21 °C 19.6 °C 1019.9 hPa Calm   1.6 km/h 92 % 0 mm
00:51 21 °C 19.6 °C 1019.9 hPa Calm   1.6 km/h 92 % 0 mm
00:56 20.9 °C 19.6 °C 1019.9 hPa Calm   1.6 km/h 92 % 0 mm
01:01 20.9 °C 19.6 °C 1019.9 hPa Calm   1.6 km/h 92 % 0 mm
01:06 20.9 °C 19.6 °C 1019.9 hPa Calm   1.6 km/h 92 % 0 mm
01:11 21 °C 19.8 °C 1019.9 hPa Calm   3.2 km/h 93 % 0 mm
01:16 21 °C 19.8 °C 1019.9 hPa SE 1.6 km/h 3.2 km/h 93 % 0 mm
01:21 21.1 °C 19.9 °C 1019.9 hPa Calm   3.2 km/h 93 % 0 mm
01:26 21 °C 19.8 °C 1019.5 hPa Calm   1.6 km/h 93 % 0 mm
01:31 21 °C 19.8 °C 1019.5 hPa Calm   1.6 km/h 93 % 0 mm
01:36 20.9 °C 19.7 °C 1019.5 hPa Calm     93 % 0 mm
01:41 20.9 °C 19.7 °C 1019.5 hPa Calm   1.6 km/h 93 % 0 mm
01:46 20.9 °C 19.7 °C 1019.5 hPa Calm   1.6 km/h 93 % 0 mm
01:51 20.8 °C 19.6 °C 1019.5 hPa Calm   1.6 km/h 93 % 0 mm
01:56 20.8 °C 19.6 °C 1019.5 hPa Calm   1.6 km/h 93 % 0 mm
02:01 20.7 °C 19.5 °C 1019.5 hPa Calm   1.6 km/h 93 % 0 mm
02:06 20.5 °C 19.3 °C 1019.5 hPa Calm   1.6 km/h 93 % 0 mm
02:11 20.6 °C 19.6 °C 1019.5 hPa Calm     94 % 0 mm
02:16 20.6 °C 19.6 °C 1019.5 hPa Calm   1.6 km/h 94 % 0 mm
02:21 20.7 °C 19.7 °C 1019.2 hPa Calm   1.6 km/h 94 % 0 mm
02:26 20.7 °C 19.7 °C 1019.2 hPa ESE 1.6 km/h 3.2 km/h 94 % 0 mm
02:31 20.7 °C 19.9 °C 1019.2 hPa Calm   3.2 km/h 95 % 0 mm
02:36 20.7 °C 19.9 °C 1019.2 hPa SSE 3.2 km/h 3.2 km/h 95 % 0 mm
02:41 20.8 °C 20 °C 1019.2 hPa SE 3.2 km/h 4.8 km/h 95 % 0 mm
02:46 20.8 °C 20 °C 1019.2 hPa ESE 1.6 km/h 4.8 km/h 95 % 0 mm
02:51 20.8 °C 20 °C 1019.2 hPa SE 1.6 km/h 4.8 km/h 95 % 0 mm
02:57 20.8 °C 20 °C 1019.2 hPa SSE 1.6 km/h 4.8 km/h 95 % 0 mm
03:02 20.8 °C 20 °C 1019.2 hPa ESE 1.6 km/h 4.8 km/h 95 % 0 mm
03:07 20.8 °C 20 °C 1019.2 hPa ESE 1.6 km/h 4.8 km/h 95 % 0 mm
03:12 20.8 °C 20 °C 1019.2 hPa Calm   3.2 km/h 95 % 0 mm
03:17 20.8 °C 20 °C 1019.2 hPa Calm   3.2 km/h 95 % 0 mm
03:22 20.7 °C 19.9 °C 1019.2 hPa Calm   3.2 km/h 95 % 0 mm
03:27 20.7 °C 19.9 °C 1019.2 hPa ESE 1.6 km/h 1.6 km/h 95 % 0 mm
03:32 20.7 °C 19.9 °C 1019.2 hPa Calm   3.2 km/h 95 % 0 mm
03:37 20.7 °C 19.9 °C 1019.2 hPa Calm   3.2 km/h 95 % 0 mm
03:42 20.6 °C 19.8 °C 1019.2 hPa Calm   3.2 km/h 95 % 0 mm
03:47 20.6 °C 19.8 °C 1019.2 hPa Calm   1.6 km/h 95 % 0 mm
03:52 20.4 °C 19.6 °C 1019.2 hPa Calm   1.6 km/h 95 % 0 mm
03:57 20.4 °C 19.6 °C 1019.2 hPa Calm   1.6 km/h 95 % 0 mm
04:02 20.4 °C 19.6 °C 1019.2 hPa Calm   1.6 km/h 95 % 0 mm
04:07 20.3 °C 19.5 °C 1019.2 hPa Calm   1.6 km/h 95 % 0 mm
04:12 20.3 °C 19.5 °C 1018.8 hPa Calm   3.2 km/h 95 % 0 mm
04:17 20.3 °C 19.5 °C 1018.8 hPa Calm   3.2 km/h 95 % 0 mm
04:22 20.3 °C 19.5 °C 1019.2 hPa SSE 1.6 km/h 3.2 km/h 95 % 0 mm
04:27 20.3 °C 19.5 °C 1019.2 hPa Calm   3.2 km/h 95 % 0 mm
04:32 20.2 °C 19.4 °C 1019.2 hPa Calm   3.2 km/h 95 % 0 mm
04:37 20.2 °C 19.4 °C 1019.2 hPa Calm   3.2 km/h 95 % 0 mm
04:42 20.1 °C 19.1 °C 1019.2 hPa Calm   1.6 km/h 94 % 0 mm
04:47 19.9 °C 18.9 °C 1019.2 hPa Calm   1.6 km/h 94 % 0 mm
04:52 19.8 °C 18.8 °C 1019.2 hPa Calm     94 % 0 mm
04:57 19.7 °C 18.7 °C 1019.2 hPa Calm     94 % 0 mm
05:02 19.4 °C 18.4 °C 1019.2 hPa Calm     94 % 0 mm
05:07 19.2 °C 18.2 °C 1019.2 hPa Calm     94 % 0 mm
05:12 19 °C 18 °C 1019.2 hPa Calm     94 % 0 mm
05:17 18.8 °C 17.8 °C 1019.2 hPa Calm     94 % 0 mm
05:22 18.8 °C 18 °C 1019.2 hPa Calm     95 % 0 mm
05:27 18.8 °C 18 °C 1019.2 hPa Calm     95 % 0 mm
05:32 18.8 °C 18 °C 1019.2 hPa Calm     95 % 0 mm
05:37 18.8 °C 18 °C 1019.2 hPa Calm     95 % 0 mm
05:42 18.8 °C 18.1 °C 1019.2 hPa Calm     96 % 0 mm
05:47 18.8 °C 18.1 °C 1019.2 hPa Calm     96 % 0 mm
05:52 18.7 °C 17.9 °C 1019.5 hPa Calm     95 % 0 mm
05:57 18.6 °C 17.9 °C 1019.5 hPa Calm     96 % 0 mm
06:02 18.7 °C 18 °C 1019.5 hPa Calm     96 % 0 mm
06:07 18.8 °C 18.1 °C 1019.5 hPa Calm     96 % 0 mm
06:12 18.9 °C 18.2 °C 1019.5 hPa Calm   1.6 km/h 96 % 0 mm
06:17 19 °C 18.5 °C 1019.9 hPa NW 1.6 km/h 1.6 km/h 97 % 0 mm
06:22 19.2 °C 18.7 °C 1019.9 hPa Calm   3.2 km/h 97 % 0 mm
06:27 19.2 °C 18.7 °C 1019.5 hPa Calm   3.2 km/h 97 % 0 mm
06:32 19.3 °C 18.8 °C 1019.5 hPa Calm   3.2 km/h 97 % 0 mm
06:37 19.4 °C 18.9 °C 1019.9 hPa Calm   3.2 km/h 97 % 0 mm
06:42 19.6 °C 19.1 °C 1019.5 hPa Calm   3.2 km/h 97 % 0 mm
06:47 19.6 °C 19.1 °C 1019.9 hPa Calm   3.2 km/h 97 % 0 mm
06:52 19.6 °C 19.1 °C 1019.9 hPa Calm   3.2 km/h 97 % 0 mm
06:57 19.7 °C 19.2 °C 1019.9 hPa Calm   3.2 km/h 97 % 0 mm
07:02 19.7 °C 19.2 °C 1019.9 hPa NE 1.6 km/h 3.2 km/h 97 % 0 mm
07:07 19.7 °C 19.2 °C 1020.2 hPa Calm   1.6 km/h 97 % 0 mm
07:13 19.7 °C 19.2 °C 1020.2 hPa Calm   1.6 km/h 97 % 0 mm
07:18 19.7 °C 19.2 °C 1020.2 hPa Calm   1.6 km/h 97 % 0 mm
07:23 19.8 °C 19.3 °C 1020.2 hPa Calm   1.6 km/h 97 % 0 mm
07:28 19.8 °C 19.3 °C 1020.2 hPa Calm   1.6 km/h 97 % 0 mm
07:33 19.8 °C 19.3 °C 1020.2 hPa Calm   1.6 km/h 97 % 0 mm
07:38 19.8 °C 19.3 °C 1020.5 hPa Calm   1.6 km/h 97 % 0 mm
07:43 19.9 °C 19.4 °C 1020.5 hPa Calm   1.6 km/h 97 % 0 mm
07:48 19.9 °C 19.4 °C 1020.5 hPa NNW 1.6 km/h 3.2 km/h 97 % 0 mm
07:53 20 °C 19.5 °C 1020.5 hPa Calm   3.2 km/h 97 % 0 mm
07:58 20.1 °C 19.6 °C 1020.5 hPa NE 3.2 km/h 6.4 km/h 97 % 0 mm
08:03 20.1 °C 19.6 °C 1020.5 hPa NE 1.6 km/h 6.4 km/h 97 % 0 mm
08:08 20.2 °C 19.7 °C 1020.5 hPa Calm   6.4 km/h 97 % 0 mm
08:13 20.2 °C 19.7 °C 1020.5 hPa NNW 1.6 km/h 4.8 km/h 97 % 0 mm
08:18 20.2 °C 19.7 °C 1020.9 hPa Calm   6.4 km/h 97 % 0 mm
08:23 19.9 °C 19.2 °C 1020.9 hPa NNE 1.6 km/h 6.4 km/h 96 % 0 mm
08:28 19.4 °C 18.7 °C 1020.9 hPa North 1.6 km/h 12.9 km/h 96 % 0 mm
08:33 19.2 °C 18.5 °C 1020.9 hPa NW 1.6 km/h 12.9 km/h 96 % 0 mm
08:38 19.1 °C 18.4 °C 1021.2 hPa Calm   12.9 km/h 96 % 0 mm
08:43 18.9 °C 18.2 °C 1021.2 hPa ENE 4.8 km/h 9.7 km/h 96 % 0 mm
08:48 18.8 °C 18.1 °C 1021.2 hPa North 3.2 km/h 11.3 km/h 96 % 0 mm
08:53 18.7 °C 18 °C 1021.2 hPa North 4.8 km/h 11.3 km/h 96 % 0 mm
08:58 18.7 °C 18 °C 1021.2 hPa Calm   12.9 km/h 96 % 0 mm
09:03 18.6 °C 17.9 °C 1021.2 hPa Calm   12.9 km/h 96 % 0 mm
09:08 18.6 °C 17.9 °C 1021.2 hPa NW 3.2 km/h 12.9 km/h 96 % 0 mm
09:13 18.5 °C 17.8 °C 1021.6 hPa ENE 1.6 km/h 9.7 km/h 96 % 0 mm
09:18 18.5 °C 17.8 °C 1021.6 hPa NE 3.2 km/h 9.7 km/h 96 % 0 mm
09:23 18.4 °C 17.8 °C 1021.6 hPa ESE 3.2 km/h 11.3 km/h 96 % 0 mm
09:28 18.3 °C 17.5 °C 1021.6 hPa ENE 4.8 km/h 11.3 km/h 95 % 0 mm
09:33 18.2 °C 17.4 °C 1021.6 hPa Calm   11.3 km/h 95 % 0 mm
09:38 18.1 °C 17.3 °C 1021.6 hPa NNE 1.6 km/h 11.3 km/h 95 % 0 mm
09:44 18.1 °C 17.3 °C 1021.6 hPa Calm   9.7 km/h 95 % 0 mm
09:49 18.2 °C 17.4 °C 1021.6 hPa NNW 1.6 km/h 9.7 km/h 95 % 0 mm
09:54 18.2 °C 17.4 °C 1021.6 hPa NNE 1.6 km/h 9.7 km/h 95 % 0 mm
09:59 18.1 °C 17.1 °C 1021.6 hPa North 4.8 km/h 9.7 km/h 94 % 0 mm
10:04 18.2 °C 17.2 °C 1021.6 hPa NNE 1.6 km/h 9.7 km/h 94 % 0 mm
10:09 18.2 °C 17 °C 1021.6 hPa Calm   9.7 km/h 93 % 0 mm
10:14 18.4 °C 17.2 °C 1021.6 hPa NNE 4.8 km/h 8 km/h 93 % 0 mm
10:19 18.6 °C 16.8 °C 1021.6 hPa NE 3.2 km/h 8 km/h 89 % 0 mm
10:24 18.7 °C 16.5 °C 1021.6 hPa ENE 3.2 km/h 8 km/h 87 % 0 mm
10:29 18.9 °C 16.3 °C 1021.6 hPa ENE 8 km/h 9.7 km/h 85 % 0 mm
10:34 19.3 °C 16.3 °C 1021.6 hPa NNW 9.7 km/h 14.5 km/h 83 % 0 mm
10:39 19.7 °C 16 °C 1021.6 hPa NNW 8 km/h 14.5 km/h 79 % 0 mm
10:44 20 °C 16 °C 1021.6 hPa NE 3.2 km/h 16.1 km/h 78 % 0 mm
10:49 20 °C 15.8 °C 1021.2 hPa North 4.8 km/h 16.1 km/h 77 % 0 mm
10:54 19.9 °C 15.7 °C 1021.2 hPa NNE 3.2 km/h 16.1 km/h 77 % 0 mm
10:59 20 °C 15.8 °C 1021.2 hPa Calm   16.1 km/h 77 % 0 mm
11:04 20.4 °C 16.2 °C 1021.2 hPa East 6.4 km/h 16.1 km/h 77 % 0 mm
11:09 20.9 °C 16.3 °C 1021.2 hPa ENE 3.2 km/h 14.5 km/h 75 % 0 mm
11:14 21.2 °C 15.9 °C 1020.9 hPa ESE 1.6 km/h 16.1 km/h 72 % 0 mm
11:19 21.1 °C 16.1 °C 1020.9 hPa ESE 4.8 km/h 16.1 km/h 73 % 0 mm
11:24 21.4 °C 16.1 °C 1020.9 hPa NW 1.6 km/h 16.1 km/h 72 % 0 mm
11:29 21.6 °C 16.1 °C 1020.9 hPa NW 8 km/h 14.5 km/h 71 % 0 mm
11:34 21.8 °C 16.3 °C 1020.9 hPa ENE 6.4 km/h 14.5 km/h 71 % 0 mm
11:39 21.8 °C 16.3 °C 1020.5 hPa ENE 6.4 km/h 14.5 km/h 71 % 0 mm
11:44 21.9 °C 16.2 °C 1020.5 hPa ENE 8 km/h 14.5 km/h 70 % 0 mm
11:49 22.1 °C 16.4 °C 1020.5 hPa WNW 1.6 km/h 14.5 km/h 70 % 0 mm
11:54 22.3 °C 16.1 °C 1020.2 hPa NE 4.8 km/h 14.5 km/h 68 % 0 mm
11:59 22.1 °C 16.1 °C 1020.2 hPa ENE 6.4 km/h 14.5 km/h 69 % 0 mm
12:04 22.2 °C 16.2 °C 1019.9 hPa East 6.4 km/h 12.9 km/h 69 % 0 mm
12:09 22.2 °C 16.2 °C 1019.9 hPa SSW 1.6 km/h 12.9 km/h 69 % 0 mm
12:14 22.7 °C 16.7 °C 1019.9 hPa East 4.8 km/h 14.5 km/h 69 % 0 mm
12:19 23.1 °C 16.6 °C 1019.9 hPa ESE 9.7 km/h 14.5 km/h 67 % 0 mm
12:24 22.9 °C 16.4 °C 1019.9 hPa ESE 6.4 km/h 14.5 km/h 67 % 0 mm
12:29 23.2 °C 17 °C 1019.5 hPa SE 8 km/h 14.5 km/h 68 % 0 mm
12:34 23.3 °C 17.3 °C 1019.5 hPa SE 9.7 km/h 14.5 km/h 69 % 0 mm
12:39 23.6 °C 17.3 °C 1019.2 hPa SE 4.8 km/h 14.5 km/h 68 % 0 mm
12:44 23.4 °C 17.2 °C 1019.2 hPa ENE 3.2 km/h 14.5 km/h 68 % 0 mm
12:49 23.5 °C 17.5 °C 1019.2 hPa ESE 17.7 km/h 17.7 km/h 69 % 0 mm
12:54 23.5 °C 17.3 °C 1019.2 hPa SSE 6.4 km/h 19.3 km/h 68 % 0 mm
12:59 23.5 °C 17 °C 1018.8 hPa SE 8 km/h 19.3 km/h 67 % 0 mm
13:04 23.4 °C 16.9 °C 1018.8 hPa ENE 8 km/h 19.3 km/h 67 % 0 mm
13:09 23.5 °C 17.3 °C 1018.5 hPa SSE 8 km/h 16.1 km/h 68 % 0 mm
13:14 23.5 °C 17.3 °C 1018.5 hPa SSE 8 km/h 16.1 km/h 68 % 0 mm
13:20 23.7 °C 17 °C 1018.2 hPa SE 12.9 km/h 16.1 km/h 66 % 0 mm
13:25 23.7 °C 17 °C 1018.2 hPa NE 6.4 km/h 17.7 km/h 66 % 0 mm
13:30 23.8 °C 17.1 °C 1017.8 hPa East 6.4 km/h 19.3 km/h 66 % 0 mm
13:35 23.9 °C 17.2 °C 1017.8 hPa SE 1.6 km/h 19.3 km/h 66 % 0 mm
13:40 24.1 °C 17.3 °C 1017.5 hPa NNE 6.4 km/h 14.5 km/h 66 % 0 mm
13:45 24.3 °C 17.5 °C 1017.2 hPa SE 4.8 km/h 17.7 km/h 66 % 0 mm
13:50 24.4 °C 17.6 °C 1017.2 hPa ESE 11.3 km/h 20.9 km/h 66 % 0 mm
13:55 24.6 °C 17.3 °C 1017.2 hPa SSE 1.6 km/h 20.9 km/h 64 % 0 mm
14:00 24.6 °C 17.3 °C 1017.2 hPa ESE 11.3 km/h 20.9 km/h 64 % 0 mm
14:05 24.6 °C 17.3 °C 1017.2 hPa ESE 4.8 km/h 20.9 km/h 64 % 0 mm
14:10 24.7 °C 17.4 °C 1016.8 hPa SE 4.8 km/h 20.9 km/h 64 % 0 mm
14:15 24.8 °C 17.5 °C 1016.8 hPa East 8 km/h 14.5 km/h 64 % 0 mm
14:20 24.7 °C 17.7 °C 1016.8 hPa ESE 14.5 km/h 14.5 km/h 65 % 0 mm
14:25 24.8 °C 17.8 °C 1016.8 hPa ESE 14.5 km/h 19.3 km/h 65 % 0 mm
14:30 24.9 °C 18.1 °C 1016.8 hPa ESE 8 km/h 19.3 km/h 66 % 0 mm
14:35 25.1 °C 17.8 °C 1016.8 hPa ENE 8 km/h 19.3 km/h 64 % 0 mm
14:40 25.1 °C 18.1 °C 1016.8 hPa East 6.4 km/h 17.7 km/h 65 % 0 mm
14:45 25.1 °C 17.6 °C 1016.5 hPa ESE 17.7 km/h 17.7 km/h 63 % 0 mm
14:50 24.7 °C 17.4 °C 1016.5 hPa ESE 8 km/h 19.3 km/h 64 % 0 mm
14:55 24.6 °C 17.3 °C 1016.5 hPa SE 12.9 km/h 19.3 km/h 64 % 0 mm
15:00 24.4 °C 17.4 °C 1016.5 hPa North 1.6 km/h 19.3 km/h 65 % 0 mm
15:05 24.7 °C 17.4 °C 1016.5 hPa East 6.4 km/h 19.3 km/h 64 % 0 mm
15:10 24.8 °C 17.3 °C 1016.1 hPa ESE 4.8 km/h 20.9 km/h 63 % 0 mm
15:15 24.9 °C 17.6 °C 1016.1 hPa SE 9.7 km/h 20.9 km/h 64 % 0 mm
15:20 25.1 °C 17.6 °C 1016.1 hPa South 8 km/h 22.5 km/h 63 % 0 mm
15:25 25.3 °C 17.7 °C 1016.1 hPa SSE 8 km/h 22.5 km/h 63 % 0 mm
15:30 25.3 °C 17.5 °C 1016.1 hPa SSE 4.8 km/h 22.5 km/h 62 % 0 mm
15:35 25.1 °C 17.8 °C 1016.1 hPa SE 3.2 km/h 17.7 km/h 64 % 0 mm
15:40 25.2 °C 17.4 °C 1016.1 hPa ESE 12.9 km/h 17.7 km/h 62 % 0 mm
15:45 24.8 °C 17.3 °C 1015.8 hPa SSE 8 km/h 17.7 km/h 63 % 0 mm
15:50 24.5 °C 17.2 °C 1015.8 hPa SE 9.7 km/h 17.7 km/h 64 % 0 mm
15:55 24.3 °C 16.8 °C 1015.8 hPa SE 8 km/h 16.1 km/h 63 % 0 mm
16:00 24.3 °C 17.1 °C 1015.8 hPa South 11.3 km/h 17.7 km/h 64 % 0 mm
16:05 24.4 °C 17.1 °C 1015.8 hPa SSE 6.4 km/h 19.3 km/h 64 % 0 mm
16:11 24.3 °C 17.1 °C 1015.5 hPa SSE 9.7 km/h 22.5 km/h 64 % 0 mm
16:16 24.1 °C 17.1 °C 1015.5 hPa ESE 8 km/h 22.5 km/h 65 % 0 mm
16:21 24.2 °C 17.4 °C 1015.8 hPa SE 6.4 km/h 22.5 km/h 66 % 0 mm
16:26 24.2 °C 17.4 °C 1015.5 hPa SE 12.9 km/h 19.3 km/h 66 % 0 mm
16:31 24.3 °C 17.5 °C 1015.5 hPa ESE 12.9 km/h 19.3 km/h 66 % 0 mm
16:36 24.2 °C 17.4 °C 1015.5 hPa ESE 3.2 km/h 19.3 km/h 66 % 0 mm
16:41 24 °C 17.3 °C 1015.5 hPa ESE 22.5 km/h 22.5 km/h 66 % 0 mm
16:46 24 °C 17.5 °C 1015.5 hPa East 8 km/h 25.7 km/h 67 % 0 mm
16:51 23.9 °C 17.4 °C 1015.5 hPa SE 9.7 km/h 25.7 km/h 67 % 0 mm
16:56 23.8 °C 17.5 °C 1015.5 hPa ESE 8 km/h 25.7 km/h 68 % 0 mm
17:01 23.6 °C 17.3 °C 1015.5 hPa SE 9.7 km/h 20.9 km/h 68 % 0 mm
17:06 23.4 °C 17.4 °C 1015.5 hPa ESE 12.9 km/h 20.9 km/h 69 % 0 mm
17:11 23.2 °C 17.4 °C 1015.5 hPa SSE 3.2 km/h 20.9 km/h 70 % 0 mm
17:16 23 °C 17.2 °C 1015.5 hPa South 1.6 km/h 20.9 km/h 70 % 0 mm
17:21 22.9 °C 17.4 °C 1015.5 hPa SE 9.7 km/h 20.9 km/h 71 % 0 mm
17:26 22.8 °C 17.5 °C 1015.5 hPa SSE 3.2 km/h 20.9 km/h 72 % 0 mm
17:31 22.7 °C 17.4 °C 1015.5 hPa SE 8 km/h 20.9 km/h 72 % 0 mm
17:36 22.6 °C 17.5 °C 1015.5 hPa SE 9.7 km/h 20.9 km/h 73 % 0 mm
17:41 22.5 °C 17.4 °C 1015.5 hPa SW 1.6 km/h 14.5 km/h 73 % 0 mm
17:46 22.4 °C 17.5 °C 1015.5 hPa East 14.5 km/h 16.1 km/h 74 % 0 mm
17:51 22.3 °C 17.7 °C 1015.5 hPa East 6.4 km/h 16.1 km/h 75 % 0 mm
17:56 22.2 °C 17.6 °C 1015.5 hPa SSE 8 km/h 16.1 km/h 75 % 0 mm
18:01 22.1 °C 17.5 °C 1015.5 hPa SE 1.6 km/h 14.5 km/h 75 % 0 mm
18:06 22 °C 17.6 °C 1015.5 hPa SSE 3.2 km/h 14.5 km/h 76 % 0 mm
18:11 21.9 °C 17.5 °C 1015.5 hPa ESE 1.6 km/h 11.3 km/h 76 % 0 mm
18:16 21.8 °C 17.6 °C 1015.5 hPa SE 4.8 km/h 9.7 km/h 77 % 0 mm
18:21 21.7 °C 17.5 °C 1015.5 hPa SE 6.4 km/h 11.3 km/h 77 % 0 mm
18:26 21.7 °C 17.5 °C 1015.5 hPa SE 6.4 km/h 12.9 km/h 77 % 0 mm
18:31 21.6 °C 17.6 °C 1015.5 hPa East 9.7 km/h 14.5 km/h 78 % 0 mm
18:36 21.4 °C 17.4 °C 1015.5 hPa ESE 11.3 km/h 16.1 km/h 78 % 0 mm
18:41 21.4 °C 17.4 °C 1015.5 hPa SSE 6.4 km/h 17.7 km/h 78 % 0 mm
18:46 21.4 °C 17.6 °C 1015.5 hPa ESE 11.3 km/h 17.7 km/h 79 % 0 mm
18:51 21.3 °C 17.5 °C 1015.5 hPa SE 4.8 km/h 17.7 km/h 79 % 0 mm
18:56 21.3 °C 17.7 °C 1015.5 hPa SE 4.8 km/h 17.7 km/h 80 % 0 mm
19:01 21.2 °C 17.6 °C 1015.5 hPa East 3.2 km/h 16.1 km/h 80 % 0 mm
19:06 21.2 °C 17.6 °C 1015.1 hPa SE 9.7 km/h 16.1 km/h 80 % 0 mm
19:11 21.1 °C 17.7 °C 1015.1 hPa East 6.4 km/h 16.1 km/h 81 % 0 mm
19:16 21.1 °C 17.7 °C 1015.1 hPa East 6.4 km/h 12.9 km/h 81 % 0 mm
19:21 21 °C 17.6 °C 1015.1 hPa East 3.2 km/h 12.9 km/h 81 % 0 mm
19:26 20.9 °C 17.5 °C 1015.1 hPa ESE 6.4 km/h 19.3 km/h 81 % 0 mm
19:31 20.9 °C 17.5 °C 1015.1 hPa East 6.4 km/h 19.3 km/h 81 % 0 mm
19:36 20.8 °C 17.6 °C 1015.1 hPa SSE 3.2 km/h 19.3 km/h 82 % 0 mm
19:41 20.8 °C 17.6 °C 1015.1 hPa ESE 4.8 km/h 19.3 km/h 82 % 0 mm
19:46 20.7 °C 17.5 °C 1015.1 hPa ENE 3.2 km/h 19.3 km/h 82 % 0 mm
19:51 20.7 °C 17.5 °C 1015.1 hPa SSE 6.4 km/h 19.3 km/h 82 % 0 mm
19:56 20.7 °C 17.7 °C 1015.1 hPa East 11.3 km/h 19.3 km/h 83 % 0 mm
20:01 20.6 °C 17.6 °C 1015.1 hPa SSE 8 km/h 17.7 km/h 83 % 0 mm
20:07 20.6 °C 17.8 °C 1015.1 hPa ESE 11.3 km/h 17.7 km/h 84 % 0 mm
20:12 20.4 °C 17.6 °C 1015.1 hPa SE 9.7 km/h 19.3 km/h 84 % 0 mm
20:17 20.3 °C 17.7 °C 1015.1 hPa SE 9.7 km/h 19.3 km/h 85 % 0 mm
20:22 20.1 °C 17.5 °C 1015.1 hPa ESE 11.3 km/h 22.5 km/h 85 % 0 mm
20:27 19.9 °C 17.5 °C 1015.1 hPa SE 8 km/h 22.5 km/h 86 % 0 mm
20:32 19.8 °C 17.4 °C 1015.1 hPa ESE 9.7 km/h 22.5 km/h 86 % 0 mm
20:37 19.8 °C 17.4 °C 1015.1 hPa SE 16.1 km/h 24.1 km/h 86 % 0 mm
20:42 19.7 °C 17.5 °C 1015.1 hPa ESE 12.9 km/h 24.1 km/h 87 % 0 mm
20:47 19.7 °C 17.5 °C 1014.8 hPa ESE 11.3 km/h 24.1 km/h 87 % 0 mm
20:52 19.6 °C 17.4 °C 1015.1 hPa ESE 6.4 km/h 22.5 km/h 87 % 0 mm
20:57 19.6 °C 17.4 °C 1014.8 hPa ESE 4.8 km/h 22.5 km/h 87 % 0 mm
21:02 19.6 °C 17.4 °C 1014.8 hPa South 9.7 km/h 16.1 km/h 87 % 0 mm
21:07 19.6 °C 17.6 °C 1014.8 hPa East 4.8 km/h 16.1 km/h 88 % 0 mm
21:12 19.5 °C 17.5 °C 1014.8 hPa SE 6.4 km/h 19.3 km/h 88 % 0 mm
21:17 19.5 °C 17.5 °C 1014.4 hPa SSE 3.2 km/h 22.5 km/h 88 % 0 mm
21:22 19.4 °C 17.4 °C 1014.4 hPa East 8 km/h 22.5 km/h 88 % 0 mm
21:27 19.4 °C 17.5 °C 1014.4 hPa SE 4.8 km/h 22.5 km/h 89 % 0 mm
21:32 19.3 °C 17.4 °C 1014.4 hPa East 6.4 km/h 19.3 km/h 89 % 0 mm
21:37 19.3 °C 17.4 °C 1014.4 hPa SSE 4.8 km/h 19.3 km/h 89 % 0 mm
21:42 19.3 °C 17.4 °C 1014.4 hPa ENE 1.6 km/h 19.3 km/h 89 % 0 mm
21:47 19.4 °C 17.5 °C 1014.4 hPa East 4.8 km/h 19.3 km/h 89 % 0 mm
21:52 19.4 °C 17.5 °C 1014.4 hPa ESE 9.7 km/h 14.5 km/h 89 % 0 mm
21:57 19.4 °C 17.5 °C 1014.4 hPa ESE 9.7 km/h 14.5 km/h 89 % 0 mm
22:02 19.4 °C 17.5 °C 1014.1 hPa SE 6.4 km/h 14.5 km/h 89 % 0 mm
22:07 19.4 °C 17.5 °C 1014.1 hPa ESE 11.3 km/h 17.7 km/h 89 % 0 mm
22:12 19.4 °C 17.5 °C 1014.1 hPa East 11.3 km/h 17.7 km/h 89 % 0 mm
22:17 19.4 °C 17.5 °C 1014.1 hPa East 11.3 km/h 17.7 km/h 89 % 0 mm
22:22 19.4 °C 17.5 °C 1014.1 hPa South 6.4 km/h 17.7 km/h 89 % 0 mm
22:27 19.5 °C 17.6 °C 1013.8 hPa ESE 6.4 km/h 14.5 km/h 89 % 0 mm
22:32 19.5 °C 17.6 °C 1014.1 hPa SE 6.4 km/h 19.3 km/h 89 % 0 mm
22:37 19.5 °C 17.6 °C 1014.1 hPa ESE 8 km/h 19.3 km/h 89 % 0 mm
22:42 19.5 °C 17.6 °C 1014.1 hPa ESE 9.7 km/h 19.3 km/h 89 % 0 mm
22:47 19.5 °C 17.6 °C 1014.1 hPa WSW 3.2 km/h 16.1 km/h 89 % 0 mm
22:52 19.6 °C 17.7 °C 1014.1 hPa SE 8 km/h 16.1 km/h 89 % 0 mm
22:57 19.6 °C 17.7 °C 1013.8 hPa East 8 km/h 16.1 km/h 89 % 0 mm
23:02 19.6 °C 17.7 °C 1013.8 hPa SE 11.3 km/h 19.3 km/h 89 % 0 mm
23:08 19.6 °C 17.7 °C 1013.8 hPa ESE 8 km/h 19.3 km/h 89 % 0 mm
23:13 19.6 °C 17.7 °C 1013.8 hPa East 9.7 km/h 19.3 km/h 89 % 0 mm
23:18 19.6 °C 17.7 °C 1013.4 hPa SSE 3.2 km/h 14.5 km/h 89 % 0 mm
23:23 19.6 °C 17.7 °C 1013.4 hPa ESE 8 km/h 14.5 km/h 89 % 0 mm
23:28 19.5 °C 17.6 °C 1013.4 hPa ENE 3.2 km/h 14.5 km/h 89 % 0 mm
23:33 19.5 °C 17.6 °C 1013.4 hPa ESE 4.8 km/h 11.3 km/h 89 % 0 mm
23:38 19.6 °C 17.7 °C 1013.4 hPa SSE 1.6 km/h 11.3 km/h 89 % 0 mm
23:43 19.6 °C 17.7 °C 1013.4 hPa SSE 4.8 km/h 11.3 km/h 89 % 0 mm
23:48 19.5 °C 17.6 °C 1013.4 hPa SE 3.2 km/h 11.3 km/h 89 % 0 mm
23:53 19.6 °C 17.9 °C 1013.4 hPa ENE 4.8 km/h 11.3 km/h 90 % 0 mm
23:58 19.6 °C 17.9 °C 1013.4 hPa East 4.8 km/h 11.3 km/h 90 % 0 mm
Spring, Texas: Villages of Bridgestone
Compliments of Weather Underground - 2.75 mb

Script developed by  Jim McMurry - jmcmurry@mwt.net Adapted for the template by  Wim van der Kuil - Leuven-Template.eu

You find our weather info also at:

UK Metoffice

WeatherCloud

Weather Underground

Mid-South Weather Network

AWEKAS

Citizen Weather Observer Program (CWOP)

HAMweather, WeatherForYou, PWS Weather

Equipment we use:

Weather-station
Davis Vantage Vue

Weather-program
Meteohub

Weather-server
Debian 7.9 x86 (Guest)

Provider
DreamHost

Davis Vantage Vue

Meteohub

Debian 7.9 x86 (Guest)

DreamHost